This demonstration page uses our WeatherBlox Daily Observations layout. Learn more.

Hourly Observations for February 23, 2015

Temp ( °F °C ) Dew Point ( °F °C ) Humidity (%) Winds ( mph kmh ) Pressure ( in mb ) Visibility ( mi km ) Precip ( " mm )
12:15 am 00:15 Clear 8 -13.4 -2 -19.1 63 63 Calm 30.92 1047 10 16.0934 0 0
12:35 am 00:35 Partly Cloudy 8 -13.5 -3 -19.4 61 61 NNE 3 6 30.92 1047 10 16.0934 0 0
12:55 am 00:55 Partly Cloudy 6 -14.5 -3 -19.5 66 66 NNE 3 6 30.92 1047 10 16.0934 0 0
1:15 am 01:15 Clear 5 -15 -3 -19.6 68 68 Calm 30.95 1048 10 16.0934 0 0
1:35 am 01:35 Clear 6 -14.7 -3 -19.3 68 68 Calm 30.95 1048 10 16.0934 0 0
1:55 am 01:55 Clear 6 -14.7 -3 -19.4 68 68 Calm 30.95 1048 10 16.0934 0 0
2:15 am 02:15 Clear 4 -15.4 -3 -19.2 73 73 Calm 30.95 1048 10 16.0934 0 0
2:35 am 02:35 Clear 4 -15.3 -3 -19.2 72 72 Calm 30.95 1048 10 16.0934 0 0
2:55 am 02:55 Clear 3 -16.1 -3 -19.6 75 75 Calm 30.95 1048 10 16.0934 0 0
3:15 am 03:15 Clear 3 -15.9 -4 -19.8 72 72 Calm 30.95 1048 10 16.0934 0 0
3:35 am 03:35 Clear 3 -16 -4 -20 72 72 Calm 30.95 1048 10 16.0934 0 0
3:55 am 03:55 Clear 4 -15.5 -4 -20 69 69 Calm 30.89 1046 10 16.0934 0 0
4:15 am 04:15 Clear 2 -16.9 -5 -20.6 73 73 Calm 30.92 1047 10 16.0934 0 0
4:35 am 04:35 Clear 1 -17.1 -5 -20.8 73 73 Calm 30.92 1047 10 16.0934 0 0
4:55 am 04:55 Clear 2 -16.8 -4 -20.2 75 75 Calm 30.92 1047 10 16.0934 0 0
5:15 am 05:15 Clear 1 -17.2 -4 -20 79 79 Calm 30.92 1047 10 16.0934 0 0
5:35 am 05:35 Clear 2 -16.5 -4 -20 75 75 SW 3 6 30.92 1047 10 16.0934 0 0
5:55 am 05:55 Clear 3 -16.3 -4 -20.1 73 73 SSW 3 6 30.89 1046 10 16.0934 0 0
6:15 am 06:15 Clear 2 -16.6 -5 -20.3 73 73 SSW 5 7 30.89 1046 10 16.0934 0 0
6:35 am 06:35 Clear 2 -16.8 -5 -20.8 71 71 SW 5 7 30.89 1046 10 16.0934 0 0
6:55 am 06:55 Clear 2 -16.6 -5 -20.8 70 70 SSW 6 9 30.89 1046 10 16.0934 0 0
7:15 am 07:15 Clear 2 -16.5 -5 -20.8 70 70 SSW 6 9 30.89 1046 10 16.0934 0 0
7:35 am 07:35 Sunny 3 -16.3 -6 -21 67 67 SSW 6 9 30.89 1046 10 16.0934 0 0
7:55 am 07:55 Sunny 4 -15.7 -5 -20.5 67 67 SSW 5 7 30.89 1046 10 16.0934 0 0
8:15 am 08:15 Sunny 5 -15.1 -4 -19.9 67 67 SSW 6 9 30.86 1045 10 16.0934 0 0
8:35 am 08:35 Sunny 8 -13.6 -2 -19.1 64 64 SSW 7 11 30.86 1045 10 16.0934 0 0
8:55 am 08:55 Sunny 9 -12.7 -3 -19.2 59 59 SSW 7 11 30.86 1045 10 16.0934 0 0
9:15 am 09:15 Sunny 10 -12 -2 -18.9 57 57 SW 9 15 30.83 1044 10 16.0934 0 0
9:35 am 09:35 Sunny 12 -11.1 0 -17.7 59 59 SW 10 17 30.8 1043 10 16.0934 0 0
9:55 am 09:55 Sunny 13 -10.8 0 -17.6 58 58 SSW 10 17 30.8 1043 10 16.0934 0 0
10:15 am 10:15 Sunny 14 -10.1 1 -17.5 55 55 SW 10 17 30.77 1042 10 16.0934 0 0
10:35 am 10:35 Sunny 15 -9.7 1 -17.5 53 53 SW 13 20 30.77 1042 10 16.0934 0 0
10:55 am 10:55 Sunny 16 -9.1 2 -16.5 55 55 SW 12 19 30.74 1041 10 16.0934 0 0
11:15 am 11:15 Sunny 17 -8.5 3 -15.9 56 56 SSW 14 22 30.74 1041 10 16.0934 0 0
11:35 am 11:35 Sunny 18 -7.9 5 -15.1 57 57 SW 14 22 30.74 1041 10 16.0934 0 0
11:55 am 11:55 Sunny 18 -7.6 7 -14 61 61 SSW 13 20 30.71 1040 10 16.0934 0 0
12:15 pm 12:15 Sunny 19 -7.2 8 -13.5 61 61 SW 13 20 30.68 1039 10 16.0934 0 0
12:35 pm 12:35 Sunny 20 -6.5 9 -13 60 60 SW 13 20 30.65 1038 10 16.0934 0 0
12:55 pm 12:55 Sunny 21 -6.2 9 -12.8 60 60 WSW 10 17 30.65 1038 10 16.0934 0 0
1:15 pm 13:15 Sunny 22 -5.5 10 -12.1 60 60 SW 12 19 30.62 1037 10 16.0934 0 0
1:35 pm 13:35 Sunny 23 -5 11 -11.7 60 60 SW 13 20 30.59 1036 10 16.0934 0 0
1:55 pm 13:55 Sunny 24 -4.4 11 -11.7 57 57 SW 12 19 30.59 1036 10 16.0934 0 0
2:15 pm 14:15 Sunny 25 -4.1 10 -12.3 53 53 SW 10 17 30.56 1035 10 16.0934 0 0
2:35 pm 14:35 Sunny 25 -4 10 -12.3 53 53 SW 13 20 30.56 1035 10 16.0934 0 0
2:55 pm 14:55 Sunny 26 -3.6 10 -12.4 51 51 SW 13 20 30.53 1034 10 16.0934 0 0
3:15 pm 15:15 Sunny 25 -3.7 9 -12.9 49 49 SW 14 22 30.53 1034 10 16.0934 0 0
3:35 pm 15:35 Sunny 26 -3.6 8 -13.1 48 48 WSW 12 19 30.5 1033 10 16.0934 0 0
3:55 pm 15:55 Sunny 26 -3.4 8 -13.6 46 46 SW 13 20 30.48 1032 10 16.0934 0 0
4:15 pm 16:15 Sunny 26 -3.4 7 -14.1 44 44 WSW 12 19 30.48 1032 10 16.0934 0 0
4:35 pm 16:35 Sunny 26 -3.5 6 -14.5 43 43 SW 12 19 30.45 1031 10 16.0934 0 0
4:55 pm 16:55 Sunny 26 -3.6 7 -13.8 45 45 WSW 15 24 30.48 1032 10 16.0934 0 0
5:15 pm 17:15 Sunny 25 -3.8 8 -13.3 48 48 SW 13 20 30.45 1031 10 16.0934 0 0
5:35 pm 17:35 Sunny 24 -4.2 9 -12.7 52 52 SW 15 24 30.45 1031 10 16.0934 0 0
5:55 pm 17:55 Sunny 23 -4.8 10 -12.5 55 55 SW 14 22 30.45 1031 10 16.0934 0 0
6:15 pm 18:15 Sunny 22 -5.3 10 -12.3 58 58 SW 10 17 30.42 1030 10 16.0934 0 0
6:35 pm 18:35 Clear 21 -6.1 10 -12.5 61 61 SW 9 15 30.42 1030 10 16.0934 0 0
6:55 pm 18:55 Clear 20 -6.6 10 -12.5 63 63 SW 8 13 30.42 1030 10 16.0934 0 0
7:15 pm 19:15 Clear 19 -7 10 -12.5 65 65 SW 12 19 30.39 1029 10 16.0934 0 0
7:35 pm 19:35 Clear 19 -7.4 10 -12.5 67 67 SW 9 15 30.39 1029 10 16.0934 0 0
7:55 pm 19:55 Clear 18 -7.8 10 -12.5 69 69 SW 10 17 30.42 1030 10 16.0934 0 0
8:15 pm 20:15 Clear 18 -8 10 -12.2 72 72 SW 10 17 30.42 1030 10 16.0934 0 0
8:35 pm 20:35 Clear 17 -8.1 10 -12.1 73 73 SW 12 19 30.42 1030 10 16.0934 0 0
8:55 pm 20:55 Clear 17 -8.2 10 -12.1 74 74 SW 12 19 30.42 1030 10 16.0934 0 0
9:15 pm 21:15 Clear 17 -8.3 10 -12 75 75 SW 12 19 30.42 1030 10 16.0934 0 0
9:35 pm 21:35 Clear 17 -8.5 10 -12 76 76 SW 10 17 30.39 1029 10 16.0934 0 0
9:55 pm 21:55 Clear 17 -8.6 10 -12 77 77 SW 10 17 30.39 1029 10 16.0934 0 0
10:15 pm 22:15 Clear 16 -8.8 10 -12 78 78 SW 13 20 30.39 1029 10 16.0934 0 0
10:35 pm 22:35 Clear 16 -9 10 -12.2 78 78 SW 15 24 30.36 1028 10 16.0934 0 0
10:55 pm 22:55 Clear 16 -9 10 -12.5 76 76 SW 14 22 30.36 1028 10 16.0934 0 0
11:15 pm 23:15 Clear 16 -9.1 10 -12.5 77 77 SW 12 19 30.33 1027 10 16.0934 0 0
11:35 pm 23:35 Clear 15 -9.2 10 -12.5 77 77 SW 13 20 30.33 1027 10 16.0934 0 0
11:55 pm 23:55 Clear 15 -9.4 9 -12.7 77 77 SW 13 20 30.33 1027 10 16.0934 0 0

Powered by AerisWeather